Weather History for Marion, VA

Change the Weather History Date:

Sunday, February 16, 2014

  Actual Average (KGEV) Record (KGEV)
Temperature  
Mean Temperature 30 °F -  
Max Temperature 41 °F 46 °F 70 °F (1976)
Min Temperature 18 °F 26 °F -5 °F (1991)
Degree Days  
Heating Degree Days 36    
Moisture  
Dew Point 25 °F    
Average Humidity 73    
Maximum Humidity 100    
Minimum Humidity 60    
Precipitation  
Precipitation 0.00 in - - ()
Sea Level Pressure  
Sea Level Pressure 30.02 in    
Wind  
Wind Speed 13 mph (West)    
Max Wind Speed 28 mph    
Max Gust Speed 39 mph    
Visibility 9 miles    
Events Snow    
Averages and records for this station are not official NWS values.
T = Trace of Precipitation, MM = Missing Value Source: NWS Daily Summary

Daily Weather History Graph

Daily Weather History Graph

Search for Another Location

Airport:

Trip Planner

Search our weather history database for the weather conditions in past years. The results will help you decide how hot, cold, wet, or windy it might be!

Date:

Astronomy

Feb. 16, 2014 Rise Set
Actual Time 7:12 AM EST 6:06 PM EST
Civil Twilight 6:46 AM EST 6:33 PM EST
Nautical Twilight 6:15 AM EST 7:03 PM EST
Astronomical Twilight 5:45 AM EST 7:33 PM EST
Moon 7:58 PM EST (2/16) 7:45 AM EST (2/16)
Length of Visible Light 11h 47m
Length of Day
10h 54m
Full, 97% of the Moon is Illuminated
Feb 16
Full
Feb 22
Last Quarter
Mar 1
New
Mar 8
First Quarter
Mar 16
Full

Hourly Weather History & Observations

Time (EST) Temp. Windchill Dew Point Humidity Pressure Visibility Wind Dir Wind Speed Gust Speed Precip Events Conditions
12:15 AM 19.2 °F 11.3 °F 14.9 °F 83% 30.01 in 10.0 mi West 5.8 mph - N/A   Clear
12:35 AM 18.7 °F 9.5 °F 14.5 °F 84% 30.01 in 10.0 mi West 6.9 mph - N/A   Clear
12:55 AM 19.0 °F 10.0 °F 14.9 °F 84% 30.00 in 10.0 mi WSW 6.9 mph - N/A   Clear
1:15 AM 19.4 °F 10.4 °F 15.4 °F 85% 30.00 in 10.0 mi WSW 6.9 mph - N/A   Clear
1:35 AM 19.4 °F 10.4 °F 15.4 °F 85% 29.99 in 10.0 mi WSW 6.9 mph - N/A   Clear
1:55 AM 19.4 °F 12.8 °F 15.6 °F 85% 29.99 in 10.0 mi WSW 4.6 mph - N/A   Clear
2:15 AM 18.7 °F - 14.7 °F 85% 29.99 in 10.0 mi Calm Calm - N/A   Clear
2:35 AM 18.5 °F - 15.4 °F 88% 29.99 in 10.0 mi Calm Calm - N/A   Mostly Cloudy
2:55 AM 18.5 °F - 15.8 °F 89% 29.98 in 10.0 mi Calm Calm - N/A   Overcast
3:15 AM 20.3 °F 10.6 °F 17.2 °F 88% 29.99 in 10.0 mi WSW 8.1 mph - N/A   Overcast
3:35 AM 22.1 °F 12.0 °F 19.8 °F 91% 29.98 in 2.5 mi WSW 9.2 mph - N/A Snow Light Snow
3:55 AM - - - N/A% 29.97 in 2.5 mi West 18.4 mph 21.9 mph N/A   Unknown
4:15 AM - - - N/A% 29.97 in 1.5 mi West 17.3 mph - N/A   Unknown
4:35 AM - - - N/A% 29.98 in 1.2 mi West 17.3 mph - N/A   Unknown
4:55 AM - - - N/A% 29.97 in 3.0 mi West 15.0 mph - N/A   Unknown
5:15 AM - - - N/A% 29.98 in 10.0 mi WSW 12.7 mph - N/A   Overcast
5:35 AM - - - N/A% 29.97 in 10.0 mi WSW 15.0 mph - N/A   Overcast
5:55 AM - - - N/A% 29.97 in 7.0 mi WSW 8.1 mph - N/A   Overcast
6:15 AM - - - N/A% 29.97 in 7.0 mi WSW 12.7 mph - N/A   Overcast
6:35 AM - - - N/A% 29.97 in 7.0 mi WSW 10.4 mph - N/A   Overcast
6:55 AM - - - N/A% 29.98 in 5.0 mi WSW 12.7 mph - N/A   Haze
7:15 AM - - - N/A% 29.99 in 5.0 mi WSW 10.4 mph - N/A   Haze
7:35 AM - - - N/A% 29.98 in 4.0 mi WSW 12.7 mph - N/A   Haze
7:55 AM - - - N/A% 29.99 in 5.0 mi WSW 13.8 mph - N/A   Haze
8:15 AM - - - N/A% 30.00 in 5.0 mi WSW 13.8 mph 18.4 mph N/A   Haze
8:35 AM - - - N/A% 30.00 in 7.0 mi WSW 11.5 mph 17.3 mph N/A   Overcast
8:55 AM 27.7 °F 17.1 °F 27.7 °F 100% 30.00 in 7.0 mi WSW 12.7 mph - N/A   Overcast
9:15 AM 29.8 °F 19.3 °F 28.9 °F 96% 30.00 in 10.0 mi WSW 13.8 mph - N/A   Overcast
9:35 AM 31.5 °F 17.9 °F 27.3 °F 85% 29.99 in 10.0 mi West 25.3 mph 28.8 mph N/A   Overcast
9:55 AM 32.0 °F 18.9 °F 26.1 °F 79% 29.98 in 10.0 mi West 24.2 mph 28.8 mph N/A   Overcast
10:15 AM 32.9 °F 21.0 °F 25.7 °F 75% 29.99 in 10.0 mi WSW 20.7 mph 28.8 mph N/A   Overcast
10:35 AM 33.3 °F 21.8 °F 25.3 °F 73% 29.99 in 10.0 mi WSW 19.6 mph 28.8 mph N/A   Overcast
10:55 AM 33.8 °F 22.5 °F 25.0 °F 70% 30.00 in 10.0 mi West 19.6 mph 32.2 mph N/A   Overcast
11:15 AM 34.7 °F 23.1 °F 25.7 °F 70% 30.00 in 10.0 mi West 21.9 mph 34.5 mph N/A   Overcast
11:35 AM 35.4 °F 24.0 °F 25.9 °F 68% 30.00 in 10.0 mi West 21.9 mph 31.1 mph N/A   Overcast
11:55 AM 35.8 °F 23.2 °F 25.3 °F 66% 29.99 in 10.0 mi West 27.6 mph 38.0 mph N/A   Overcast
12:15 PM 36.3 °F 23.9 °F 25.2 °F 64% 29.99 in 10.0 mi West 27.6 mph 33.4 mph N/A   Overcast
12:35 PM 36.3 °F 24.4 °F 25.7 °F 65% 30.00 in 10.0 mi West 25.3 mph 34.5 mph N/A   Overcast
12:55 PM 36.9 °F 26.5 °F 26.6 °F 66% 30.00 in 10.0 mi WSW 19.6 mph 32.2 mph N/A   Overcast
1:15 PM 36.9 °F 25.4 °F 26.2 °F 65% 29.99 in 10.0 mi WSW 24.2 mph 29.9 mph N/A   Overcast
1:35 PM 37.4 °F 26.1 °F 26.6 °F 65% 29.99 in 10.0 mi WSW 24.2 mph 31.1 mph N/A   Overcast
1:55 PM 37.4 °F 26.4 °F 26.8 °F 66% 29.98 in 10.0 mi WSW 23.0 mph 28.8 mph N/A   Overcast
2:15 PM 37.4 °F 26.1 °F 27.1 °F 66% 29.98 in 10.0 mi WSW 24.2 mph 28.8 mph N/A   Overcast
2:35 PM 38.1 °F 27.6 °F 27.7 °F 66% 29.97 in 10.0 mi WSW 21.9 mph 27.6 mph N/A   Overcast
2:55 PM 38.7 °F 28.0 °F 28.2 °F 66% 29.97 in 10.0 mi West 23.0 mph 27.6 mph N/A   Overcast
3:15 PM 38.8 °F 28.5 °F 28.2 °F 66% 29.98 in 10.0 mi West 21.9 mph 28.8 mph N/A   Overcast
3:35 PM 39.0 °F 29.9 °F 28.6 °F 66% 29.98 in 10.0 mi West 17.3 mph 24.2 mph N/A   Overcast
3:55 PM 39.6 °F 29.7 °F 28.9 °F 66% 29.99 in 10.0 mi West 20.7 mph 27.6 mph N/A   Overcast
4:15 PM 40.1 °F 30.2 °F 28.9 °F 64% 29.99 in 10.0 mi West 21.9 mph 31.1 mph N/A   Overcast
4:35 PM 40.1 °F 30.2 °F 29.1 °F 65% 30.00 in 10.0 mi West 21.9 mph - N/A   Overcast
4:55 PM 40.6 °F 31.2 °F 28.9 °F 63% 30.01 in 10.0 mi West 20.7 mph 27.6 mph N/A   Overcast
5:15 PM 40.6 °F 31.2 °F 28.2 °F 61% 30.02 in 10.0 mi West 20.7 mph 26.5 mph N/A   Mostly Cloudy
5:35 PM 41.0 °F 31.1 °F 28.2 °F 60% 30.02 in 10.0 mi West 23.0 mph 32.2 mph N/A   Mostly Cloudy
5:55 PM 40.1 °F 32.0 °F 28.0 °F 62% 30.03 in 10.0 mi WNW 15.0 mph 21.9 mph N/A   Scattered Clouds
6:15 PM 39.2 °F 30.2 °F 28.0 °F 64% 30.04 in 10.0 mi WNW 17.3 mph 23.0 mph N/A   Clear
6:35 PM 38.7 °F 30.1 °F 28.4 °F 67% 30.06 in 10.0 mi WNW 15.0 mph 26.5 mph N/A   Clear
6:55 PM 38.3 °F 29.0 °F 28.9 °F 69% 30.07 in 10.0 mi WNW 17.3 mph 24.2 mph N/A   Clear
7:15 PM 37.9 °F 27.6 °F 29.1 °F 71% 30.07 in 10.0 mi WNW 20.7 mph 28.8 mph N/A   Scattered Clouds
7:35 PM 37.4 °F 26.4 °F 28.9 °F 71% 30.09 in 10.0 mi WNW 23.0 mph 32.2 mph N/A   Scattered Clouds
7:55 PM 37.0 °F 26.2 °F 28.8 °F 72% 30.09 in 10.0 mi WNW 21.9 mph 32.2 mph N/A   Clear
8:15 PM 36.7 °F 25.7 °F 28.4 °F 72% 30.10 in 10.0 mi WNW 21.9 mph 31.1 mph N/A   Clear
8:35 PM 36.3 °F 26.1 °F 28.2 °F 72% 30.10 in 10.0 mi West 18.4 mph 36.8 mph N/A   Clear
8:55 PM 35.8 °F 25.4 °F 27.9 °F 73% 30.11 in 10.0 mi WNW 18.4 mph 27.6 mph N/A   Clear
9:15 PM 35.8 °F 24.8 °F 27.3 °F 71% 30.11 in 10.0 mi West 20.7 mph 32.2 mph N/A   Clear
9:35 PM 35.4 °F 22.7 °F 26.8 °F 71% 30.11 in 10.0 mi West 27.6 mph 39.1 mph N/A   Scattered Clouds
9:55 PM 34.7 °F 23.4 °F 26.6 °F 72% 30.12 in 10.0 mi West 20.7 mph 27.6 mph N/A   Mostly Cloudy
10:15 PM 34.7 °F 25.9 °F 26.6 °F 72% 30.14 in 10.0 mi West 12.7 mph 26.5 mph N/A   Mostly Cloudy
10:35 PM 34.2 °F 24.8 °F 26.4 °F 73% 30.14 in 10.0 mi West 13.8 mph 24.2 mph N/A   Overcast
10:55 PM 33.8 °F 22.8 °F 26.1 °F 73% 30.14 in 10.0 mi West 18.4 mph 25.3 mph N/A   Overcast
11:15 PM 33.4 °F 26.6 °F 25.5 °F 73% 30.14 in 10.0 mi West 8.1 mph 12.7 mph N/A   Overcast
11:35 PM 32.9 °F 24.1 °F 25.2 °F 73% 30.15 in 10.0 mi West 11.5 mph 17.3 mph N/A   Overcast
11:55 PM 32.4 °F 24.6 °F 24.6 °F 73% 30.14 in 10.0 mi West 9.2 mph - N/A   Mostly Cloudy